Temp
44 37 34 40 44 47 44 39 39 43 48 45 43 46 50 54 50 50 51 52 52 55 61 59 60 58 56 56 60 62 61 61 61 59 57 55 53 52 49 48 49 48 48 48
40 34 43 45 44 42 42 38 35 42 46 44 43 42 47 50 50 54 55 53 53 53 56 58 58 54 55 55 59 59 60 60 61 61 60 57 54 50 47 47 47 47 47 46
37 42 47 43 41 40 39 37 35 38 42 42 39 40 43 49 51 52 55 57 57 57 56 57 56 53 52 53 55 57 58 59 60 58 54 53 51 50 45 44 44 45 46 45
37 43 42 43 39 41 34 43 42 40 34 28 38 30 41 45 49 49 55 54 57 57 58 58 57 51 52 54 56 56 57 57 57 56 56 53 53 50 44 43 43 43 45 44
35 38 38 35 38 45 39 43 40 39 32 28 32 23 37 44 46 49 49 52 56 58 56 55 55 56 52 50 53 55 54 55 56 57 57 53 50 47 44 43 42 42 42 43
38 42 42 39 42 43 45 41 37 34 27 19 35 31 38 44 47 48 51 51 52 53 53 56 54 50 47 47 48 51 52 50 54 55 54 53 49 45 44 41 41 40 40 41
35 35 42 43 35 42 40 32 26 24 23 23 32 28 39 45 46 48 51 52 51 49 47 47 49 47 46 46 47 49 50 47 48 50 51 51 49 46 44 42 40 39 38 38
26 23 37 42 39 33 31 33 27 19 21 23 29 27 37 44 48 50 51 52 49 46 48 46 46 45 45 46 46 47 47 45 47 47 47 47 46 44 43 41 41 40 39 39
22 25 39 41 42 39 32 28 34 27 27 25 27 31 40 42 43 44 45 44 44 44 44 45 44 46 46 45 44 46 45 44 45 46 46 44 42 42 42 40 40 39 39 41
26 19 33 36 39 39 35 38 26 28 20 19 24 24 29 34 37 40 42 41 39 40 41 42 43 44 45 45 44 44 45 44 42 44 43 42 41 41 40 40 39 39 39 39
28 21 25 31 29 28 29 28 30 30 28 22 23 21 34 32 35 36 38 41 38 39 39 40 40 41 42 42 43 42 42 42 41 42 40 40 40 40 40 40 38 38 38 38
26 24 17 24 34 35 34 31 32 23 22 27 27 28 38 39 38 38 38 41 38 38 38 39 39 40 40 41 41 41 41 41 41 41 40 40 40 40 39 38 38 38 37 37
26 15 11 15 22 29 23 26 27 26 29 24 22 26 38 38 35 38 36 38 39 38 38 38 38 38 38 39 39 39 39 39 39 40 39 39 39 39 38 37 37 37 36 36
28 20 15 9 15 20 17 22 24 22 20 22 25 28 34 34 36 37 38 39 39 39 39 38 37 38 38 39 38 39 38 39 40 40 39 39 39 39 39 38 37 36 37 36
21 5 18 18 22 21 22 22 23 20 23 20 25 24 31 36 37 41 42 40 41 40 41 40 38 38 38 38 38 39 40 40 40 40 39 39 39 39 38 37 37 37 37 36
23 10 14 11 18 22 20 24 24 26 27 26 26 26 32 35 35 38 40 39 39 39 41 41 41 39 37 40 39 41 41 41 41 40 40 39 39 38 37 38 38 37 35 34
16 16 2 6 15 10 5 16 25 28 28 27 21 24 29 29 31 33 32 34 35 37 37 37 39 39 39 40 42 41 41 41 40 40 39 39 39 39 38 38 37 35 34 34
16 12 15 7 -1 -4 18 27 29 27 25 27 27 28 30 31 32 35 36 35 36 35 36 38 38 38 39 40 41 41 40 39 38 37 40 40 39 37 36 36 35 34 33 32
24 18 10 4 1 12 19 22 23 22 21 28 27 30 31 33 34 32 36 37 37 35 36 36 37 37 37 37 39 38 37 37 36 35 35 36 37 35 35 34 34 32 32 31
19 17 14 5 -1 -1 15 28 30 30 16 30 28 29 28 31 23 29 36 36 36 36 35 35 36 35 35 35 36 37 36 36 36 37 36 36 36 36 35 35 33 31 32 31
-1 -9 -1 -3 -8 2 23 27 29 13 19 31 31 28 28 25 30 35 37 36 36 33 33 34 35 34 34 34 35 36 36 36 38 36 36 35 35 35 35 33 30 31 30 31
5 -4 1 -12 -14 -4 26 25 19 26 29 30 31 31 30 30 30 33 34 34 34 31 31 34 32 33 34 32 34 35 35 37 35 35 35 35 35 35 32 32 31 31 30 28
6 13 7 8 12 27 28 28 32 30 28 29 27 30 31 30 28 29 30 33 34 31 31 31 30 31 32 30 32 32 36 35 35 35 35 35 34 32 31 30 30 30 28 27
19 23 15 18 24 26 29 31 31 29 28 32 32 30 29 27 30 31 30 32 33 34 32 32 31 30 31 28 29 33 29 33 35 35 35 34 33 30 30 31 30 29 28 27
22 19 19 19 24 27 28 30 31 32 31 29 30 30 30 29 31 32 32 32 33 33 33 32 31 31 31 31 27 27 30 32 33 34 33 32 33 31 30 31 30 30 29 32
25 22 18 16 27 26 27 31 32 29 29 31 29 29 31 30 30 31 31 32 31 30 31 30 30 26 28 29 26 25 26 31 33 32 32 32 33 31 31 30 25 33 33 34
MSLP
1014.95 1015.10 1014.91 1014.68 1014.20 1013.67 1013.47 1013.08 1012.53 1011.60 1010.99 1011.31 1010.99 1010.15 1009.27 1008.87 1008.92 1008.72 1008.62 1008.51 1008.30 1008.02 1007.40 1007.89 1008.00 1008.46 1009.11 1009.42 1009.71 1010.12 1011.00 1011.66 1012.33 1013.98 1014.91 1016.00 1016.26 1017.15 1017.81 1018.23 1018.87 1019.10 1019.33 1019.72
1016.15 1015.38 1014.66 1014.50 1014.57 1014.39 1013.97 1013.60 1012.76 1012.21 1011.68 1011.81 1011.18 1010.03 1009.19 1008.80 1008.38 1007.91 1007.76 1007.65 1007.46 1007.34 1007.22 1007.41 1007.63 1008.24 1008.80 1009.24 1009.62 1010.10 1010.88 1011.35 1011.81 1012.76 1014.13 1014.89 1016.27 1017.16 1017.87 1018.34 1019.08 1019.28 1019.65 1019.96
1016.80 1015.62 1014.60 1014.80 1014.58 1014.72 1014.08 1013.76 1013.54 1012.95 1012.46 1012.13 1011.95 1009.65 1008.92 1007.47 1007.27 1006.83 1006.49 1006.27 1006.33 1006.35 1006.52 1006.85 1007.30 1007.78 1008.48 1008.84 1009.22 1009.81 1010.49 1011.41 1011.65 1012.62 1014.01 1015.41 1016.63 1017.49 1018.40 1018.88 1019.34 1019.49 1019.76 1020.13
1017.01 1016.35 1015.65 1014.97 1014.80 1014.73 1013.97 1013.42 1013.35 1013.22 1013.68 1013.23 1012.13 1009.44 1007.46 1006.70 1005.93 1005.68 1005.31 1005.41 1005.20 1005.33 1005.54 1006.27 1006.81 1007.49 1008.13 1008.59 1009.28 1009.80 1010.33 1011.06 1011.73 1012.34 1013.36 1014.28 1015.64 1016.84 1017.89 1018.57 1019.26 1019.54 1019.86 1020.22
1017.49 1016.63 1016.12 1015.76 1015.09 1014.29 1013.95 1013.67 1013.44 1013.31 1013.52 1013.65 1012.84 1011.96 1006.24 1005.91 1005.22 1004.92 1004.62 1004.32 1004.18 1004.27 1004.81 1005.30 1005.94 1006.79 1007.74 1008.43 1009.07 1009.86 1010.46 1011.08 1011.68 1012.40 1012.80 1014.22 1015.14 1016.30 1017.38 1018.41 1019.31 1019.64 1019.95 1020.25
1017.96 1017.01 1016.47 1014.89 1014.43 1014.58 1014.32 1013.97 1014.50 1014.60 1014.48 1013.88 1010.73 1011.49 1005.58 1005.53 1004.38 1004.18 1003.99 1003.75 1003.76 1003.96 1004.51 1005.07 1005.66 1006.65 1007.77 1008.46 1009.09 1009.89 1010.56 1011.25 1011.79 1012.25 1012.97 1014.22 1014.66 1016.38 1017.43 1018.53 1019.29 1019.71 1020.05 1020.44
1018.40 1016.91 1015.74 1015.07 1014.81 1014.41 1015.05 1015.16 1014.84 1014.70 1014.48 1012.54 1010.81 1010.83 1006.88 1004.48 1004.23 1004.24 1003.95 1003.61 1003.60 1004.03 1004.89 1005.41 1006.08 1006.84 1008.01 1008.69 1009.30 1009.89 1010.58 1011.46 1012.03 1012.66 1013.00 1014.14 1014.70 1016.11 1016.82 1017.93 1018.80 1019.46 1020.01 1020.41
1020.01 1018.04 1016.59 1015.89 1015.61 1015.65 1015.87 1015.60 1014.86 1013.74 1013.32 1012.27 1011.15 1009.65 1006.38 1005.08 1004.59 1004.13 1003.98 1003.73 1003.85 1004.31 1004.72 1005.34 1006.00 1006.79 1007.74 1008.65 1009.27 1009.88 1010.73 1011.60 1012.26 1012.85 1013.57 1014.12 1015.23 1016.02 1016.88 1017.61 1018.45 1019.03 1019.56 1020.00
1022.77 1019.61 1018.02 1016.90 1016.35 1016.12 1016.22 1015.89 1015.34 1014.28 1013.27 1012.45 1010.50 1009.08 1006.97 1005.80 1005.69 1005.16 1004.62 1004.77 1004.69 1004.94 1005.29 1005.91 1006.65 1007.13 1008.01 1008.87 1009.48 1010.00 1010.96 1011.83 1012.40 1013.03 1013.73 1014.43 1015.40 1016.15 1016.92 1017.67 1018.33 1018.97 1019.40 1019.82
1024.60 1022.05 1019.35 1017.85 1017.14 1016.54 1016.33 1016.06 1015.99 1014.98 1013.56 1012.13 1010.54 1009.93 1008.75 1008.17 1007.64 1006.83 1005.98 1005.64 1005.84 1006.09 1006.48 1006.98 1007.54 1008.13 1008.84 1009.21 1009.79 1010.47 1011.17 1011.95 1012.85 1013.37 1013.87 1014.67 1015.66 1016.23 1016.98 1017.71 1018.46 1018.96 1019.39 1019.79
1025.73 1023.92 1020.94 1019.49 1018.30 1017.77 1017.66 1016.94 1016.53 1015.64 1014.51 1012.55 1011.14 1010.54 1010.57 1010.36 1009.83 1008.78 1007.63 1007.09 1006.95 1007.16 1007.63 1008.00 1008.58 1009.02 1009.31 1009.73 1010.33 1011.09 1011.74 1012.39 1013.12 1013.74 1014.41 1015.14 1015.88 1016.49 1017.16 1017.79 1018.38 1018.85 1019.39 1019.94
1026.78 1025.24 1023.02 1021.11 1019.35 1018.67 1018.02 1017.54 1017.24 1016.20 1014.78 1013.75 1013.05 1011.31 1010.83 1010.88 1010.57 1009.95 1009.33 1008.58 1008.10 1008.12 1008.40 1008.65 1009.11 1009.49 1009.92 1010.31 1010.93 1011.56 1012.16 1012.74 1013.33 1013.91 1014.65 1015.42 1016.09 1016.72 1017.37 1017.96 1018.39 1018.89 1019.51 1019.91
1027.67 1026.44 1024.88 1022.49 1020.80 1020.29 1020.48 1019.76 1019.06 1017.50 1015.04 1013.88 1013.34 1012.10 1011.57 1010.98 1011.16 1011.04 1010.73 1010.09 1009.78 1009.30 1009.04 1009.27 1009.63 1010.16 1010.60 1010.92 1011.28 1011.72 1012.28 1012.91 1013.60 1014.31 1014.99 1015.70 1016.27 1016.81 1017.38 1017.93 1018.49 1019.02 1019.44 1019.89
1028.32 1028.06 1027.91 1026.78 1025.54 1024.86 1023.04 1021.00 1020.47 1019.92 1017.53 1015.31 1014.07 1013.17 1012.55 1012.10 1012.02 1011.53 1011.39 1011.19 1010.89 1010.17 1010.26 1010.01 1010.09 1010.41 1010.75 1011.10 1011.43 1011.83 1012.32 1012.86 1013.63 1014.42 1015.15 1015.70 1016.15 1016.65 1017.25 1017.86 1018.39 1018.85 1019.30 1019.81
1028.55 1028.38 1027.75 1026.80 1026.06 1025.14 1023.69 1021.84 1020.16 1019.35 1017.95 1016.78 1015.02 1014.71 1013.67 1013.15 1012.37 1011.45 1011.01 1011.10 1011.44 1011.02 1010.96 1010.61 1010.72 1010.79 1010.87 1011.17 1011.46 1011.82 1012.35 1012.91 1013.59 1014.35 1015.06 1015.66 1016.16 1016.64 1017.20 1017.80 1018.29 1018.76 1019.36 1019.88
1028.22 1028.14 1027.92 1026.70 1025.96 1025.09 1023.24 1021.70 1020.35 1018.90 1017.40 1016.74 1016.11 1015.42 1015.54 1014.32 1013.12 1012.22 1011.11 1011.09 1011.21 1010.95 1010.53 1010.09 1010.04 1010.74 1011.25 1011.18 1011.60 1011.90 1012.27 1012.76 1013.54 1014.24 1014.86 1015.47 1016.08 1016.61 1017.03 1017.55 1018.03 1018.91 1019.50 1019.77
1028.69 1028.40 1028.50 1027.15 1026.58 1025.36 1023.31 1021.22 1019.65 1018.53 1018.13 1017.82 1017.29 1017.33 1016.42 1015.28 1014.43 1013.47 1013.14 1013.38 1012.80 1012.19 1011.55 1010.50 1010.20 1010.37 1010.51 1011.02 1010.92 1011.73 1012.16 1012.72 1013.38 1014.02 1014.53 1015.01 1015.70 1016.33 1016.79 1017.48 1017.99 1018.75 1019.26 1019.52
1028.02 1028.36 1028.66 1027.98 1027.59 1025.37 1022.19 1020.38 1019.37 1019.12 1019.12 1018.71 1018.20 1017.94 1017.52 1017.00 1016.12 1014.69 1014.09 1014.09 1013.38 1012.91 1012.21 1011.57 1010.86 1010.22 1010.45 1010.68 1010.87 1011.27 1011.90 1012.60 1013.26 1013.88 1014.37 1014.73 1015.18 1015.75 1016.57 1017.25 1017.81 1018.43 1018.88 1019.17
1027.48 1028.31 1028.68 1028.62 1027.90 1025.05 1022.31 1020.61 1019.91 1019.32 1019.52 1019.11 1018.33 1017.71 1017.04 1016.23 1015.53 1014.70 1015.01 1014.76 1014.38 1013.76 1013.31 1012.49 1011.53 1010.71 1010.71 1010.72 1010.78 1011.26 1011.89 1012.44 1013.00 1013.68 1014.05 1014.31 1014.64 1015.42 1016.39 1017.01 1017.48 1017.90 1018.29 1018.92
1027.91 1028.05 1029.12 1028.94 1028.10 1025.45 1022.47 1020.21 1019.22 1018.60 1018.31 1018.56 1017.99 1017.41 1017.01 1016.45 1015.79 1015.17 1014.70 1015.07 1014.46 1014.00 1013.64 1012.76 1012.00 1011.53 1010.99 1010.56 1010.87 1011.17 1011.61 1012.00 1012.20 1012.11 1012.78 1013.84 1014.32 1014.91 1015.89 1016.64 1017.13 1017.44 1018.01 1018.50
1029.10 1029.34 1030.10 1029.12 1027.61 1024.80 1021.50 1019.64 1018.96 1018.55 1018.32 1017.49 1017.74 1017.44 1017.05 1017.03 1016.60 1015.44 1015.05 1014.78 1014.52 1014.19 1013.32 1012.67 1012.45 1011.80 1011.15 1010.88 1010.73 1010.63 1010.82 1011.14 1010.78 1011.49 1012.32 1013.25 1013.76 1014.43 1015.10 1016.22 1016.93 1017.19 1017.89 1018.38
1028.47 1029.07 1028.84 1027.91 1026.46 1023.44 1020.33 1019.52 1018.96 1017.90 1017.74 1017.70 1017.21 1017.09 1016.63 1016.16 1015.94 1015.52 1014.92 1014.53 1014.08 1013.69 1013.12 1012.75 1012.66 1012.00 1011.11 1010.56 1010.70 1010.57 1010.19 1009.81 1010.82 1011.53 1012.37 1012.91 1013.58 1014.07 1014.96 1015.97 1016.83 1017.00 1017.59 1018.17
1026.30 1025.70 1025.53 1025.05 1022.62 1020.70 1019.42 1018.56 1017.79 1017.57 1017.52 1017.10 1017.03 1016.62 1016.26 1015.77 1015.38 1015.38 1014.96 1014.20 1013.88 1013.68 1013.24 1012.83 1012.37 1011.56 1010.76 1010.42 1010.33 1010.19 1009.63 1010.06 1010.76 1011.56 1011.88 1012.68 1013.23 1013.90 1014.65 1015.60 1016.43 1016.83 1017.20 1017.76
1023.40 1023.05 1023.13 1022.26 1020.19 1019.44 1018.26 1017.47 1017.20 1017.04 1016.98 1016.68 1016.48 1016.22 1015.82 1015.54 1014.72 1014.40 1014.03 1013.82 1013.45 1013.18 1013.08 1012.73 1012.36 1011.51 1010.37 1009.91 1009.80 1009.65 1009.64 1009.80 1010.15 1010.66 1011.43 1011.88 1012.93 1013.68 1014.52 1015.35 1015.77 1016.00 1016.45 1017.27
1021.31 1021.55 1020.34 1019.97 1018.76 1018.02 1017.10 1016.81 1016.39 1016.27 1016.26 1016.18 1015.91 1015.77 1015.44 1015.18 1014.72 1014.04 1013.57 1013.31 1012.93 1012.43 1012.20 1012.12 1011.84 1010.96 1010.09 1009.47 1009.44 1009.26 1009.30 1009.47 1009.67 1009.95 1010.75 1011.41 1012.16 1013.04 1013.98 1014.60 1014.85 1015.14 1015.43 1015.91
1019.02 1018.96 1019.36 1018.17 1017.03 1017.34 1016.31 1015.86 1015.70 1015.94 1015.77 1015.52 1015.48 1015.15 1014.83 1014.74 1014.44 1013.95 1013.49 1013.14 1012.92 1012.67 1012.27 1011.91 1011.45 1010.93 1010.17 1009.62 1009.38 1009.11 1009.12 1009.16 1009.24 1009.57 1010.04 1010.60 1011.41 1012.49 1013.35 1014.12 1014.86 1014.93 1015.24 1015.56
Wind_Speed
2 2 7 11 12 6 4 5 7 3 3 5 9 15 17 11 6 9 9 9 10 14 12 9 9 8 8 7 12 15 15 15 14 9 9 6 7 6 5 5 6 6 5 5
5 7 10 6 7 8 12 10 10 8 3 5 7 14 12 12 10 14 14 12 12 7 8 8 9 9 12 12 13 14 15 17 14 12 8 5 7 3 4 5 5 6 6 5
8 8 5 3 8 10 11 13 5 11 2 4 4 17 10 10 14 10 14 16 14 15 14 11 10 11 10 14 14 15 16 15 14 13 10 8 7 6 4 3 4 4 6 5
9 6 11 15 11 5 12 8 12 11 4 8 3 15 10 6 17 13 19 17 17 17 13 11 12 10 14 13 12 13 14 14 11 16 13 19 10 9 4 4 4 5 6 6
8 10 14 12 6 8 8 7 6 6 6 3 6 1 5 6 13 11 13 16 19 18 15 16 15 14 11 11 13 13 12 11 13 12 15 11 10 4 5 6 7 5 5 6
14 5 5 7 11 3 4 1 10 6 2 4 24 12 22 12 9 7 8 10 13 12 12 12 9 10 9 8 10 11 14 9 12 13 12 11 15 11 10 7 6 4 4 4
14 10 5 4 5 3 3 2 3 5 5 8 4 9 23 4 4 6 9 11 9 7 8 10 13 11 10 12 11 11 14 10 10 11 12 11 14 12 13 11 7 7 4 3
8 8 8 7 3 2 2 4 6 6 5 6 3 10 16 4 9 13 11 10 5 8 9 10 11 12 12 13 12 11 12 11 10 10 10 10 11 8 7 6 7 5 4 5
8 6 14 12 4 6 2 5 4 7 3 4 5 7 11 6 7 9 9 6 6 6 7 9 8 10 12 12 11 14 12 9 9 11 10 10 8 9 9 8 6 4 5 4
6 15 5 6 4 5 3 3 4 3 5 7 3 4 5 15 17 14 11 5 1 4 7 7 7 9 8 10 9 10 11 13 9 11 9 9 9 8 8 7 7 7 6 6
10 6 11 7 2 1 3 3 5 5 4 5 3 3 6 7 12 18 12 7 2 4 6 6 6 6 7 8 9 9 10 12 10 9 7 9 8 9 8 8 7 7 6 6
6 7 9 16 18 12 6 11 12 6 4 5 6 7 5 12 15 19 20 12 2 2 4 6 7 8 9 9 9 9 8 9 9 8 9 8 9 8 8 7 7 7 7 6
8 5 8 13 7 9 6 12 15 20 4 9 8 2 4 9 16 19 20 22 10 3 6 6 6 6 6 6 8 9 8 8 8 9 9 9 9 8 8 8 7 7 7 6
2 3 6 9 12 9 17 16 15 10 9 6 7 11 9 15 14 12 17 17 17 7 6 1 4 6 7 6 7 8 8 9 10 9 9 10 9 9 8 8 7 7 6 6
0 6 11 14 12 15 18 19 21 19 16 9 10 15 19 18 17 14 9 4 10 5 7 4 3 4 5 6 6 7 7 9 10 10 9 9 7 8 8 8 7 6 6 6
3 9 8 15 17 13 19 15 21 18 7 9 12 11 16 17 20 16 13 6 9 8 9 11 10 7 7 8 6 7 9 10 10 10 10 8 9 9 9 8 8 7 6 6
6 7 0 16 10 5 7 9 11 13 6 8 5 8 15 20 22 15 17 18 16 16 11 6 8 9 9 9 11 10 9 8 10 10 10 11 10 10 8 7 8 7 7 6
9 4 4 9 4 7 7 7 9 7 7 6 7 11 11 12 15 14 19 18 18 15 16 11 7 6 8 6 7 7 9 10 9 7 10 10 11 10 9 9 8 7 5 6
10 4 4 2 4 6 8 4 4 5 8 8 4 9 9 13 13 4 19 15 13 11 14 11 7 6 2 7 7 8 8 9 10 9 7 8 10 10 9 9 9 6 6 4
2 4 5 4 3 5 7 6 6 6 10 4 3 11 8 13 11 10 13 10 12 12 10 13 11 5 6 4 6 10 10 12 15 15 13 10 10 11 11 9 9 4 4 5
5 5 4 5 4 10 9 6 4 5 5 13 7 7 7 5 7 12 11 9 7 7 10 11 11 10 6 5 6 12 12 16 16 8 9 10 11 12 11 8 4 7 5 5
6 3 7 3 2 10 8 5 5 6 6 10 12 8 12 12 9 8 11 10 10 11 10 11 10 10 9 4 7 10 13 8 6 9 10 11 11 8 8 10 6 7 7 6
5 10 5 10 8 9 8 12 16 10 13 12 7 12 12 14 8 8 8 11 9 8 10 8 9 13 8 5 6 9 10 9 11 11 14 11 9 9 9 11 10 8 6 5
7 8 8 11 16 17 17 18 12 9 10 13 13 12 9 10 13 11 8 8 11 10 9 9 10 11 14 5 6 10 4 8 13 15 12 11 11 10 9 7 6 7 7 6
10 4 15 17 21 18 20 16 18 17 11 10 10 10 10 11 16 18 15 13 11 11 9 8 10 11 14 10 7 6 6 8 11 12 11 11 10 12 10 8 8 8 5 7
12 20 11 16 21 13 17 18 16 12 11 14 11 13 13 11 14 15 14 11 9 8 9 11 12 9 12 11 8 6 6 9 10 11 10 11 11 10 9 8 4 7 5 13
Wind_Direction
291 149 212 216 224 244 250 244 246 246 218 191 235 245 250 261 256 253 244 234 229 222 225 216 213 181 169 158 155 157 151 154 139 139 132 133 135 137 127 109 119 111 107 108
326 265 247 234 247 260 268 273 262 284 273 203 269 262 251 243 235 227 233 234 232 225 215 215 202 169 175 169 165 156 159 161 152 150 155 133 137 104 110 113 114 113 111 113
249 269 358 197 255 255 251 248 259 246 287 256 341 278 245 248 238 231 231 226 228 218 212 212 197 185 173 171 168 165 163 166 151 140 116 102 90 95 86 109 114 121 117 114
279 332 314 288 265 222 260 213 237 239 145 245 160 274 219 215 236 225 234 222 223 218 212 207 202 182 183 179 167 161 160 159 150 149 144 153 159 162 159 137 135 127 126 121
259 295 304 311 296 257 258 327 272 228 197 92 223 311 252 195 239 235 235 227 222 220 201 194 195 186 178 157 164 160 152 152 152 153 154 155 133 102 122 120 130 129 128 130
258 280 262 230 233 244 307 265 316 347 81 206 237 192 274 231 229 235 240 233 224 214 205 199 173 146 152 140 140 147 149 144 150 146 148 161 134 143 136 139 142 143 132 135
302 275 270 267 271 254 136 100 252 222 205 238 160 175 243 256 289 263 260 263 242 197 167 160 162 149 146 150 147 146 150 145 144 146 142 151 141 148 144 152 152 149 143 146
328 329 359 344 350 155 278 262 227 243 205 241 136 211 245 223 261 264 247 252 264 194 182 173 163 150 152 151 149 143 145 133 135 133 130 132 138 140 139 144 149 146 149 148
300 277 324 288 248 147 98 247 322 298 241 251 199 277 298 2 327 320 308 300 262 187 164 153 138 142 145 147 145 142 136 129 133 133 134 128 128 136 143 136 130 136 133 136
309 301 295 296 333 246 197 145 300 263 251 254 242 280 265 358 337 325 304 287 132 104 95 102 118 134 144 145 135 131 140 143 139 133 132 134 138 127 128 129 136 138 134 126
295 234 292 326 257 282 321 280 232 245 258 301 295 240 349 355 351 346 321 314 305 105 115 126 124 125 132 125 135 134 132 133 133 132 125 131 132 131 132 136 139 138 130 137
278 300 289 278 280 296 271 266 258 265 250 286 289 257 340 18 11 6 3 335 297 159 136 137 141 136 140 138 134 141 137 141 144 135 132 133 134 137 137 139 140 137 139 137
336 319 316 330 0 31 348 322 342 329 253 238 242 302 311 34 14 2 352 349 328 299 143 140 133 143 146 145 149 147 147 140 135 135 139 142 147 148 148 143 141 141 139 138
1 271 278 275 284 298 295 319 318 317 295 329 276 304 320 330 332 356 332 339 332 4 335 43 148 164 166 164 158 154 147 147 148 150 154 158 162 158 151 146 146 143 144 140
251 232 284 267 259 284 271 294 311 303 268 263 297 308 324 322 310 303 254 235 304 354 338 304 264 216 174 164 160 157 155 155 157 158 162 169 157 148 144 146 148 139 144 154
218 272 271 286 286 264 283 285 288 289 300 283 285 274 351 339 354 328 298 204 274 210 224 218 210 190 207 181 176 168 167 168 162 166 170 159 159 157 157 153 141 146 157 157
264 259 243 271 286 310 296 243 256 276 30 321 356 354 349 352 341 348 41 18 2 343 299 246 228 201 194 202 174 183 177 158 172 173 172 168 163 164 153 151 149 160 169 155
244 220 246 270 33 270 251 277 286 358 46 26 33 1 350 343 329 30 25 4 348 344 343 314 277 223 212 202 191 155 161 169 175 180 183 174 168 161 157 160 165 164 160 167
218 233 257 246 212 288 313 358 351 345 322 336 325 340 335 342 343 337 355 355 334 327 325 316 307 288 275 209 172 157 151 169 167 182 188 178 163 157 166 174 176 167 152 159
107 248 229 333 226 264 249 270 298 268 279 295 304 330 335 343 339 321 328 334 324 322 315 323 324 297 284 244 172 165 187 184 202 188 183 180 172 165 175 182 175 145 157 167
331 340 194 268 250 285 261 271 303 262 302 323 316 288 314 293 271 301 304 301 300 284 313 321 314 309 270 243 195 200 191 211 205 173 166 169 172 175 174 159 163 155 156 153
188 150 267 67 55 291 238 284 245 274 302 298 299 270 302 285 266 285 296 305 317 315 318 323 318 311 301 249 201 215 219 215 136 153 171 178 181 168 151 156 165 163 158 164
254 191 207 181 231 255 248 270 284 282 280 285 265 284 290 287 275 267 268 305 310 299 305 302 306 311 295 261 218 232 228 161 154 167 183 188 170 160 157 162 173 168 166 169
250 226 241 267 259 262 261 272 270 257 254 271 277 271 278 278 290 289 283 289 301 303 297 299 306 305 303 265 244 237 209 167 170 183 196 169 171 167 165 175 179 166 168 180
242 177 254 271 273 277 270 263 266 274 265 255 251 247 251 262 284 288 290 287 288 291 298 293 296 296 293 296 261 245 211 176 184 183 179 176 175 178 176 189 183 184 192 184
237 249 248 260 269 268 274 281 276 271 266 270 253 265 260 252 264 274 280 278 275 277 297 301 300 283 283 286 278 253 213 194 186 185 180 181 174 176 177 179 178 221 201 204